sat.trackr.live / text

‹ back to catalog

UNKNOWN

NORAD 81478

UNKNOWN UNKNOWN UNKNOWN

§ Identity

Operator
Country
Launch date
Launch site
Launch vehicle
Mass (kg)
RCS (m²)

External: N2YO · Heavens-Above

§ Orbital elements

Epoch: 2026-05-22T06:13:52.845024Z

Period
100.73 min
Inclination
98.9513°
Eccentricity
0.0142020
Mean motion
14.29614178 rev/d
Perigee alt
691.2 km
Apogee alt
894.9 km
Semi-major
7,171.2 km
B*
7.9681e-4
RAAN
63.4518°
Arg perigee
252.3899°
Mean anomaly
261.3810°
Rev number
64,586

§ Raw data

UNKNOWN1 81478U          26142.25963941  .00002226  00000+0  79681-3 0  99972 81478  98.9513  63.4518 0142020 252.3899 261.3810 14.29614178645862

JSON: /api/v1/satellites/81478 · /tle

For live sub-satellite position, see the globe view (requires WebGL).

§ Visibility from observer

Set your observer location to see the next 7 days of passes ≥ 10°. The values pass through the URL so the page stays shareable.

No JS? Fill the form by hand. The geolocation button needs JavaScript.